Location: Austin
(30.3000°N, 97.7500°W)
Time: 00:45:50
(UTC-05:00)

CARTOSAT-1 - Pass Details

Date: 15 May 2024
Orbit: 606 x 609 km, 97.6° (Epoch: 29 May)

Event Time Altitude Azimuth Distance (km) Brightness Sun altitude
Exits shadow 21:48:48 21° 178° (S) 1,360 5.0 -17.8°
Maximum altitude 21:51:33 71° 258° (WSW) 644 3.7 -18.3°
Drops below altitude 10° 21:55:48 10° 343° (NNW) 1,959 6.9 -19.0°
Sets 21:57:59 0° 346° (NNW) 2,865 7.8 -19.4°
